����������;��������(kWh)
2016-02-29 00:00;84,4
2016-02-29 00:15;84,05
2016-02-29 00:30;82,15
2016-02-29 00:45;76
2016-02-29 01:00;86,15
2016-02-29 01:15;103,95
2016-02-29 01:30;102,65
2016-02-29 01:45;89,6
2016-02-29 02:00;83,8
2016-02-29 02:15;82,05
2016-02-29 02:30;80,35
2016-02-29 02:45;80,65
2016-02-29 03:00;84
2016-02-29 03:15;79,45
2016-02-29 03:30;81,7
2016-02-29 03:45;82,9
2016-02-29 04:00;84,25
2016-02-29 04:15;79,7
2016-02-29 04:30;82,05
2016-02-29 04:45;78,6
2016-02-29 05:00;77,2
2016-02-29 05:15;79,3
2016-02-29 05:30;81,05
2016-02-29 05:45;80,4
2016-02-29 06:00;79,35
2016-02-29 06:15;81,95
2016-02-29 06:30;87,6
2016-02-29 06:45;86,8
2016-02-29 07:00;84,05
2016-02-29 07:15;86,45
2016-02-29 07:30;83,1
2016-02-29 07:45;89,3
2016-02-29 08:00;97,45
2016-02-29 08:15;100,95
2016-02-29 08:30;115,15
2016-02-29 08:45;129,85
2016-02-29 09:00;188,65
2016-02-29 09:15;210,35
2016-02-29 09:30;191,2
2016-02-29 09:45;164,45
2016-02-29 10:00;168,75
2016-02-29 10:15;156,8
2016-02-29 10:30;158,4
2016-02-29 10:45;158,6
2016-02-29 11:00;161,25
2016-02-29 11:15;155,45
2016-02-29 11:30;157,65
2016-02-29 11:45;157,15
2016-02-29 12:00;161,45
2016-02-29 12:15;159,6
2016-02-29 12:30;164,95
2016-02-29 12:45;157,5
2016-02-29 13:00;159,15
2016-02-29 13:15;172,7
2016-02-29 13:30;174,05
2016-02-29 13:45;175,1
2016-02-29 14:00;171
2016-02-29 14:15;166,65
2016-02-29 14:30;163,65
2016-02-29 14:45;162
2016-02-29 15:00;169,3
2016-02-29 15:15;163,85
2016-02-29 15:30;160,55
2016-02-29 15:45;160,7
2016-02-29 16:00;153,7
2016-02-29 16:15;149,8
2016-02-29 16:30;153,4
2016-02-29 16:45;150,1
2016-02-29 17:00;152,05
2016-02-29 17:15;149,15
2016-02-29 17:30;144,9
2016-02-29 17:45;144,7
2016-02-29 18:00;144,6
2016-02-29 18:15;148,9
2016-02-29 18:30;143,3
2016-02-29 18:45;147,35
2016-02-29 19:00;148,85
2016-02-29 19:15;140,7
2016-02-29 19:30;130,9
2016-02-29 19:45;123,1
2016-02-29 20:00;121,05
2016-02-29 20:15;119,65
2016-02-29 20:30;114,3
2016-02-29 20:45;114,1
2016-02-29 21:00;110
2016-02-29 21:15;107,4
2016-02-29 21:30;105,6
2016-02-29 21:45;96,9
2016-02-29 22:00;94,95
2016-02-29 22:15;93,4
2016-02-29 22:30;87,75
2016-02-29 22:45;89,6
2016-02-29 23:00;89,9
2016-02-29 23:15;87,2
2016-02-29 23:30;88,6
2016-02-29 23:45;88,9
2016-03-01 00:00;86,35
2016-03-01 00:15;86,05
2016-03-01 00:30;85,65
2016-03-01 00:45;86,95
2016-03-01 01:00;88,15
2016-03-01 01:15;80,3
2016-03-01 01:30;80,85
2016-03-01 01:45;106,1
2016-03-01 02:00;102,85
2016-03-01 02:15;91,6
2016-03-01 02:30;88
2016-03-01 02:45;85,45
2016-03-01 03:00;86,8
2016-03-01 03:15;84,1
2016-03-01 03:30;85,6
2016-03-01 03:45;87,5
2016-03-01 04:00;85,75
2016-03-01 04:15;81,3
2016-03-01 04:30;85,8
2016-03-01 04:45;80
2016-03-01 05:00;80,2
2016-03-01 05:15;83,05
2016-03-01 05:30;85,4
2016-03-01 05:45;85,6
2016-03-01 06:00;85,8
2016-03-01 06:15;89,8
2016-03-01 06:30;94,4
2016-03-01 06:45;91,95
2016-03-01 07:00;88,15
2016-03-01 07:15;91,9
2016-03-01 07:30;91,4
2016-03-01 07:45;95,4
2016-03-01 08:00;155,05
2016-03-01 08:15;167,8
2016-03-01 08:30;118,55
2016-03-01 08:45;117,75
2016-03-01 09:00;118,8
2016-03-01 09:15;141,45
2016-03-01 09:30;151,45
2016-03-01 09:45;160,55
2016-03-01 10:00;155,65
2016-03-01 10:15;163,9
2016-03-01 10:30;157,05
2016-03-01 10:45;163,25
2016-03-01 11:00;158,85
2016-03-01 11:15;152,8
2016-03-01 11:30;162,4
2016-03-01 11:45;153,4
2016-03-01 12:00;165,3
2016-03-01 12:15;156,8
2016-03-01 12:30;171,35
2016-03-01 12:45;152,2
2016-03-01 13:00;174,65
2016-03-01 13:15;157,8
2016-03-01 13:30;176,05
2016-03-01 13:45;159,75
2016-03-01 14:00;164,95
2016-03-01 14:15;169,05
2016-03-01 14:30;158,2
2016-03-01 14:45;166,75
2016-03-01 15:00;149,8
2016-03-01 15:15;166,55
2016-03-01 15:30;149,65
2016-03-01 15:45;159,35
2016-03-01 16:00;146,05
2016-03-01 16:15;148,55
2016-03-01 16:30;136,3
2016-03-01 16:45;139,1
2016-03-01 17:00;137,1
2016-03-01 17:15;141,4
2016-03-01 17:30;136,6
2016-03-01 17:45;137,1
2016-03-01 18:00;149,65
2016-03-01 18:15;150,9
2016-03-01 18:30;150,2
2016-03-01 18:45;149,85
2016-03-01 19:00;143,6
2016-03-01 19:15;139,8
2016-03-01 19:30;131,7
2016-03-01 19:45;129,6
2016-03-01 20:00;122,9
2016-03-01 20:15;116,95
2016-03-01 20:30;109,15
2016-03-01 20:45;110,25
2016-03-01 21:00;108,1
2016-03-01 21:15;103,15
2016-03-01 21:30;103,65
2016-03-01 21:45;97,15
2016-03-01 22:00;95,3
2016-03-01 22:15;93,8
2016-03-01 22:30;98,7
2016-03-01 22:45;97,65
2016-03-01 23:00;96,55
2016-03-01 23:15;91,3
2016-03-01 23:30;90,35
2016-03-01 23:45;90,55
2016-03-02 00:00;85,6
2016-03-02 00:15;82,25
2016-03-02 00:30;82,45
2016-03-02 00:45;82,75
2016-03-02 01:00;82,55
2016-03-02 01:15;83,5
2016-03-02 01:30;81
2016-03-02 01:45;81,3
2016-03-02 02:00;99
2016-03-02 02:15;106,65
2016-03-02 02:30;96,55
2016-03-02 02:45;91,5
2016-03-02 03:00;93,85
2016-03-02 03:15;91,4
2016-03-02 03:30;91,1
2016-03-02 03:45;93,35
2016-03-02 04:00;89,85
2016-03-02 04:15;88,4
2016-03-02 04:30;91,95
2016-03-02 04:45;88,7
2016-03-02 05:00;87,05
2016-03-02 05:15;88,45
2016-03-02 05:30;89,1
2016-03-02 05:45;89,4
2016-03-02 06:00;88
2016-03-02 06:15;94,1
2016-03-02 06:30;99,4
2016-03-02 06:45;98,8
2016-03-02 07:00;99,25
2016-03-02 07:15;105,95
2016-03-02 07:30;103,15
2016-03-02 07:45;110,55
2016-03-02 08:00;171,55
2016-03-02 08:15;140,65
2016-03-02 08:30;124,6
2016-03-02 08:45;126,5
2016-03-02 09:00;166,1
2016-03-02 09:15;207
2016-03-02 09:30;157,8
2016-03-02 09:45;173,4
2016-03-02 10:00;163,25
2016-03-02 10:15;167,1
2016-03-02 10:30;156,15
2016-03-02 10:45;178,9
2016-03-02 11:00;161,65
2016-03-02 11:15;175,55
2016-03-02 11:30;162
2016-03-02 11:45;178,7
2016-03-02 12:00;159,4
2016-03-02 12:15;175,7
2016-03-02 12:30;168,35
2016-03-02 12:45;187,15
2016-03-02 13:00;178,4
2016-03-02 13:15;187,15
2016-03-02 13:30;176,55
2016-03-02 13:45;180,3
2016-03-02 14:00;173,8
2016-03-02 14:15;171,25
2016-03-02 14:30;167,05
2016-03-02 14:45;166,15
2016-03-02 15:00;170,1
2016-03-02 15:15;154,85
2016-03-02 15:30;160,7
2016-03-02 15:45;148
2016-03-02 16:00;162,5
2016-03-02 16:15;141,3
2016-03-02 16:30;138,8
2016-03-02 16:45;132,95
2016-03-02 17:00;135,05
2016-03-02 17:15;135,8
2016-03-02 17:30;129,9
2016-03-02 17:45;133,1
2016-03-02 18:00;135,95
2016-03-02 18:15;137,65
2016-03-02 18:30;136,1
2016-03-02 18:45;138,65
2016-03-02 19:00;141,8
2016-03-02 19:15;137,25
2016-03-02 19:30;137,2
2016-03-02 19:45;140,8
2016-03-02 20:00;134,1
2016-03-02 20:15;134,1
2016-03-02 20:30;126,8
2016-03-02 20:45;122,9
2016-03-02 21:00;117,4
2016-03-02 21:15;110,25
2016-03-02 21:30;106,45
2016-03-02 21:45;104,35
2016-03-02 22:00;101,15
2016-03-02 22:15;100,4
2016-03-02 22:30;100,45
2016-03-02 22:45;92,5
2016-03-02 23:00;88,15
2016-03-02 23:15;85,9
2016-03-02 23:30;85,25
2016-03-02 23:45;83,95
2016-03-03 00:00;83,35
2016-03-03 00:15;80,8
2016-03-03 00:30;81,15
2016-03-03 00:45;79,4
2016-03-03 01:00;79,6
2016-03-03 01:15;79,8
2016-03-03 01:30;79,15
2016-03-03 01:45;78,75
2016-03-03 02:00;79,55
2016-03-03 02:15;79,1
2016-03-03 02:30;79,25
2016-03-03 02:45;105,65
2016-03-03 03:00;105,6
2016-03-03 03:15;94,85
2016-03-03 03:30;91,8
2016-03-03 03:45;92,45
2016-03-03 04:00;91,75
2016-03-03 04:15;88,15
2016-03-03 04:30;90,75
2016-03-03 04:45;88,1
2016-03-03 05:00;86,3
2016-03-03 05:15;88,55
2016-03-03 05:30;88,85
2016-03-03 05:45;89,8
2016-03-03 06:00;91,15
2016-03-03 06:15;89,3
2016-03-03 06:30;93,75
2016-03-03 06:45;96,8
2016-03-03 07:00;97,1
2016-03-03 07:15;105,85
2016-03-03 07:30;100,2
2016-03-03 07:45;112,15
2016-03-03 08:00;185,15
2016-03-03 08:15;160,45
2016-03-03 08:30;141,4
2016-03-03 08:45;138,5
2016-03-03 09:00;146,4
2016-03-03 09:15;170
2016-03-03 09:30;173,65
2016-03-03 09:45;174,6
2016-03-03 10:00;173,35
2016-03-03 10:15;173,6
2016-03-03 10:30;175,15
2016-03-03 10:45;172,05
2016-03-03 11:00;169,6
2016-03-03 11:15;168,85
2016-03-03 11:30;157,8
2016-03-03 11:45;161,7
2016-03-03 12:00;161,75
2016-03-03 12:15;167,65
2016-03-03 12:30;168,05
2016-03-03 12:45;168,2
2016-03-03 13:00;168,2
2016-03-03 13:15;168,85
2016-03-03 13:30;172,05
2016-03-03 13:45;170,85
2016-03-03 14:00;169
2016-03-03 14:15;164,65
2016-03-03 14:30;154,4
2016-03-03 14:45;156,9
2016-03-03 15:00;157,8
2016-03-03 15:15;149,95
2016-03-03 15:30;156,85
2016-03-03 15:45;153,75
2016-03-03 16:00;146,35
2016-03-03 16:15;134,85
2016-03-03 16:30;136,25
2016-03-03 16:45;135,25
2016-03-03 17:00;139,2
2016-03-03 17:15;137,35
2016-03-03 17:30;129,85
2016-03-03 17:45;135,3
2016-03-03 18:00;130,2
2016-03-03 18:15;124,1
2016-03-03 18:30;125,75
2016-03-03 18:45;126,3
2016-03-03 19:00;127,8
2016-03-03 19:15;120,4
2016-03-03 19:30;127,9
2016-03-03 19:45;124,3
2016-03-03 20:00;118,9
2016-03-03 20:15;118,45
2016-03-03 20:30;116,55
2016-03-03 20:45;113,9
2016-03-03 21:00;114,45
2016-03-03 21:15;110,25
2016-03-03 21:30;103
2016-03-03 21:45;102,05
2016-03-03 22:00;104,15
2016-03-03 22:15;102,2
2016-03-03 22:30;100,1
2016-03-03 22:45;100
2016-03-03 23:00;97,6
2016-03-03 23:15;98,65
2016-03-03 23:30;95,1
2016-03-03 23:45;93,8
2016-03-04 00:00;96,55
2016-03-04 00:15;96,65
2016-03-04 00:30;88,05
2016-03-04 00:45;84,35
2016-03-04 01:00;87,3
2016-03-04 01:15;87,1
2016-03-04 01:30;83,95
2016-03-04 01:45;81,8
2016-03-04 02:00;77
2016-03-04 02:15;76,5
2016-03-04 02:30;77,85
2016-03-04 02:45;78,5
2016-03-04 03:00;82,95
2016-03-04 03:15;90,2
2016-03-04 03:30;112,25
2016-03-04 03:45;107,8
2016-03-04 04:00;98,8
2016-03-04 04:15;93,1
2016-03-04 04:30;97
2016-03-04 04:45;91,25
2016-03-04 05:00;88,55
2016-03-04 05:15;91,95
2016-03-04 05:30;92,4
2016-03-04 05:45;92,65
2016-03-04 06:00;93,35
2016-03-04 06:15;94
2016-03-04 06:30;98,7
2016-03-04 06:45;96,7
2016-03-04 07:00;92,85
2016-03-04 07:15;94,9
2016-03-04 07:30;101,25
2016-03-04 07:45;113,25
2016-03-04 08:00;118,35
2016-03-04 08:15;120,95
2016-03-04 08:30;122,15
2016-03-04 08:45;129,1
2016-03-04 09:00;136,05
2016-03-04 09:15;143,35
2016-03-04 09:30;145,1
2016-03-04 09:45;155,95
2016-03-04 10:00;162,85
2016-03-04 10:15;163
2016-03-04 10:30;162,1
2016-03-04 10:45;171,15
2016-03-04 11:00;169,2
2016-03-04 11:15;173,25
2016-03-04 11:30;177
2016-03-04 11:45;179,25
2016-03-04 12:00;180,65
2016-03-04 12:15;177,15
2016-03-04 12:30;174,3
2016-03-04 12:45;187,35
2016-03-04 13:00;194,9
2016-03-04 13:15;193,65
2016-03-04 13:30;188,2
2016-03-04 13:45;199,45
2016-03-04 14:00;193,6
2016-03-04 14:15;195,55
2016-03-04 14:30;188,05
2016-03-04 14:45;180,35
2016-03-04 15:00;183,85
2016-03-04 15:15;180,7
2016-03-04 15:30;179,5
2016-03-04 15:45;180,7
2016-03-04 16:00;174,3
2016-03-04 16:15;156,65
2016-03-04 16:30;162,1
2016-03-04 16:45;157,55
2016-03-04 17:00;153,5
2016-03-04 17:15;150,9
2016-03-04 17:30;146,3
2016-03-04 17:45;144,35
2016-03-04 18:00;145,55
2016-03-04 18:15;146,3
2016-03-04 18:30;145,4
2016-03-04 18:45;147,2
2016-03-04 19:00;154,25
2016-03-04 19:15;150,3
2016-03-04 19:30;148,95
2016-03-04 19:45;150,3
2016-03-04 20:00;145,1
2016-03-04 20:15;139,4
2016-03-04 20:30;141,85
2016-03-04 20:45;137,15
2016-03-04 21:00;135,3
2016-03-04 21:15;127,9
2016-03-04 21:30;115,5
2016-03-04 21:45;114,15
2016-03-04 22:00;106,1
2016-03-04 22:15;102,75
2016-03-04 22:30;102,6
2016-03-04 22:45;100,1
2016-03-04 23:00;97,05
2016-03-04 23:15;96
2016-03-04 23:30;92,45
2016-03-04 23:45;92
2016-03-05 00:00;96,6
2016-03-05 00:15;93,65
2016-03-05 00:30;93,65
2016-03-05 00:45;92,85
2016-03-05 01:00;94,55
2016-03-05 01:15;91,85
2016-03-05 01:30;91,25
2016-03-05 01:45;93,8
2016-03-05 02:00;91,4
2016-03-05 02:15;83,65
2016-03-05 02:30;82
2016-03-05 02:45;84,9
2016-03-05 03:00;85,65
2016-03-05 03:15;83,3
2016-03-05 03:30;86,4
2016-03-05 03:45;87
2016-03-05 04:00;87,35
2016-03-05 04:15;83,55
2016-03-05 04:30;90
2016-03-05 04:45;82,55
2016-03-05 05:00;81,6
2016-03-05 05:15;83,7
2016-03-05 05:30;84,5
2016-03-05 05:45;80,45
2016-03-05 06:00;79,4
2016-03-05 06:15;84,55
2016-03-05 06:30;83
2016-03-05 06:45;84,75
2016-03-05 07:00;80,9
2016-03-05 07:15;81,9
2016-03-05 07:30;79,9
2016-03-05 07:45;79,2
2016-03-05 08:00;83,6
2016-03-05 08:15;80
2016-03-05 08:30;77,7
2016-03-05 08:45;76,05
2016-03-05 09:00;76,95
2016-03-05 09:15;77,75
2016-03-05 09:30;79,95
2016-03-05 09:45;82,05
2016-03-05 10:00;81,7
2016-03-05 10:15;76,55
2016-03-05 10:30;76,3
2016-03-05 10:45;75,75
2016-03-05 11:00;78,15
2016-03-05 11:15;78,85
2016-03-05 11:30;82,4
2016-03-05 11:45;84,9
2016-03-05 12:00;81,45
2016-03-05 12:15;84
2016-03-05 12:30;84,3
2016-03-05 12:45;77,9
2016-03-05 13:00;78,95
2016-03-05 13:15;79,55
2016-03-05 13:30;82,2
2016-03-05 13:45;79,5
2016-03-05 14:00;79,2
2016-03-05 14:15;82,25
2016-03-05 14:30;81,4
2016-03-05 14:45;78,75
2016-03-05 15:00;77
2016-03-05 15:15;78,4
2016-03-05 15:30;80,65
2016-03-05 15:45;78,95
2016-03-05 16:00;77,8
2016-03-05 16:15;78,75
2016-03-05 16:30;81,4
2016-03-05 16:45;84,5
2016-03-05 17:00;84,7
2016-03-05 17:15;82,7
2016-03-05 17:30;83
2016-03-05 17:45;87,55
2016-03-05 18:00;87,2
2016-03-05 18:15;86,25
2016-03-05 18:30;88,2
2016-03-05 18:45;92,25
2016-03-05 19:00;106,7
2016-03-05 19:15;104,1
2016-03-05 19:30;102,95
2016-03-05 19:45;104,65
2016-03-05 20:00;107,35
2016-03-05 20:15;106,9
2016-03-05 20:30;103,95
2016-03-05 20:45;107,8
2016-03-05 21:00;103,05
2016-03-05 21:15;94
2016-03-05 21:30;91,05
2016-03-05 21:45;89,75
2016-03-05 22:00;87,85
2016-03-05 22:15;86,4
2016-03-05 22:30;86,05
2016-03-05 22:45;86,65
2016-03-05 23:00;85,9
2016-03-05 23:15;84,3
2016-03-05 23:30;85
2016-03-05 23:45;83,05
2016-03-06 00:00;81,75
2016-03-06 00:15;78,55
2016-03-06 00:30;77,6
2016-03-06 00:45;74,8
2016-03-06 01:00;75,65
2016-03-06 01:15;76,3
2016-03-06 01:30;76,1
2016-03-06 01:45;73,95
2016-03-06 02:00;74,5
2016-03-06 02:15;75,85
2016-03-06 02:30;74,7
2016-03-06 02:45;74,3
2016-03-06 03:00;79,8
2016-03-06 03:15;75,35
2016-03-06 03:30;76,4
2016-03-06 03:45;78,35
2016-03-06 04:00;77,65
2016-03-06 04:15;73,5
2016-03-06 04:30;76,65
2016-03-06 04:45;72,65
2016-03-06 05:00;72,2
2016-03-06 05:15;73,55
2016-03-06 05:30;74,5
2016-03-06 05:45;75,85
2016-03-06 06:00;74,25
2016-03-06 06:15;76,8
2016-03-06 06:30;82,65
2016-03-06 06:45;79,45
2016-03-06 07:00;78,8
2016-03-06 07:15;76,3
2016-03-06 07:30;80,05
2016-03-06 07:45;85,75
2016-03-06 08:00;81,9
2016-03-06 08:15;83,8
2016-03-06 08:30;79
2016-03-06 08:45;75,65
2016-03-06 09:00;75,9
2016-03-06 09:15;77,05
2016-03-06 09:30;73,9
2016-03-06 09:45;76,7
2016-03-06 10:00;76,2
2016-03-06 10:15;67,3
2016-03-06 10:30;68,5
2016-03-06 10:45;69,5
2016-03-06 11:00;73,5
2016-03-06 11:15;72,75
2016-03-06 11:30;75,3
2016-03-06 11:45;76,15
2016-03-06 12:00;76,65
2016-03-06 12:15;72,7
2016-03-06 12:30;73,65
2016-03-06 12:45;75,5
2016-03-06 13:00;77,3
2016-03-06 13:15;79,95
2016-03-06 13:30;77,1
2016-03-06 13:45;78,7
2016-03-06 14:00;75,9
2016-03-06 14:15;79,2
2016-03-06 14:30;80,6
2016-03-06 14:45;77,25
2016-03-06 15:00;77,6
2016-03-06 15:15;78,2
2016-03-06 15:30;77,6
2016-03-06 15:45;78,75
2016-03-06 16:00;76,75
2016-03-06 16:15;78,05
2016-03-06 16:30;77,45
2016-03-06 16:45;79,75
2016-03-06 17:00;82,95
2016-03-06 17:15;81,65
2016-03-06 17:30;80,2
2016-03-06 17:45;86,55
2016-03-06 18:00;87
2016-03-06 18:15;88,3
2016-03-06 18:30;90,9
2016-03-06 18:45;96,2
2016-03-06 19:00;101,8
2016-03-06 19:15;100
2016-03-06 19:30;105,25
2016-03-06 19:45;101,15
2016-03-06 20:00;99,4
2016-03-06 20:15;93,55
2016-03-06 20:30;93,95
2016-03-06 20:45;93,7
2016-03-06 21:00;91,4
2016-03-06 21:15;91,9
2016-03-06 21:30;92,75
2016-03-06 21:45;91
2016-03-06 22:00;88,95
2016-03-06 22:15;86,8
2016-03-06 22:30;86,3
2016-03-06 22:45;86,25
2016-03-06 23:00;85,2
2016-03-06 23:15;85,15
2016-03-06 23:30;81,05
2016-03-06 23:45;85,75

